[[{"header":{"parameterUnit":"m.s-1","parameterCategory":1,"la1":30.2991,"la2":30.254,"lo1":-89.0895,"lo2":-89.0444,"dy":0.0017,"dx":0.0017,"nx":28,"ny":28,"refTime":"2023-11-10T09:00:00:Z","depth":0,"parameterNumber":2,"parameterNumberName":"U-component_of_WINDS"},"data":[0,0,0,0,0,0,0,0,0,0,0,0,0,0,0,0,0,0,0,0,0,0,0,0,0,0,0,0,0,0,0,0,0,0,0,0,0,0,0,0,0,0,0,0,0,0,0,0,0,0,0,0,0,0,0,0,0,0,-1.3228,-1.3229,0,-1.3327,-1.3328,-1.333,-1.3345,-1.3344,-1.3343,-1.3342,-1.3447,-1.345,-1.3454,0,0,0,0,0,0,0,0,0,0,0,0,0,-1.3054,-1.3058,-1.3228,-1.3229,-1.323,-1.3327,-1.3328,-1.333,-1.3345,-1.3344,-1.3343,-1.3342,-1.3446,-1.345,-1.3454,0,0,0,0,0,0,0,0,0,0,0,0,0,-1.3139,-1.3059,-1.3228,-1.325,-1.3253,-1.3327,-1.3329,-1.333,-1.3345,-1.3344,-1.3342,-1.3341,-1.3444,-1.3449,-1.3455,-1.3515,0,0,-1.3471,-1.3474,0,0,0,0,0,0,0,0,-1.3135,-1.3146,-1.3245,-1.3248,-1.3252,-1.3322,-1.3306,-1.3392,-1.3345,-1.331,-1.3342,-1.3341,-1.3407,-1.3415,-1.3437,-1.352,-1.3524,-1.3472,-1.3475,-1.3477,-1.3479,0,0,0,0,0,0,0,-1.3129,-1.3142,-1.3267,-1.3247,-1.3251,-1.3255,-1.3266,-1.3322,-1.3365,-1.3313,-1.3314,-1.3326,-1.3408,-1.3431,-1.3439,-1.3526,-1.3472,-1.3476,-1.348,-1.3482,-1.3665,-1.3667,0,0,0,0,0,0,-1.3118,-1.3137,-1.3264,-1.327,-1.3188,-1.326,-1.3271,-1.3301,-1.3364,-1.3372,-1.3327,-1.3326,-1.3423,-1.3433,-1.3443,-1.3519,-1.3477,-1.3482,-1.3486,-1.3664,-1.3666,-1.3667,0,0,0,0,0,0,-1.3115,-1.313,-1.326,-1.3204,-1.3221,-1.3264,-1.3297,-1.3304,-1.3327,-1.3374,-1.3382,-1.3343,-1.3422,-1.3435,-1.3497,-1.3522,-1.3485,-1.349,-1.3662,-1.3664,-1.3666,-1.367,0,0,0,0,0,0,-1.311,-1.3128,-1.3151,-1.3204,-1.3224,-1.3312,-1.3299,-1.3307,-1.3336,-1.3336,-1.3391,-1.3399,-1.3422,-1.3489,-1.3502,-1.3529,-1.3494,-1.366,-1.3663,-1.3666,-1.3668,-1.3672,-1.3676,0,0,0,0,0,-1.3103,-1.3148,-1.3152,-1.3167,-1.3253,-1.3313,-1.3324,-1.3349,-1.3338,-1.3362,-1.3392,-1.3398,-1.3517,-1.3495,-1.3511,-1.3539,-1.3658,-1.3662,-1.3665,-1.3666,-1.3671,-1.3676,0,0,0,0,0,0,-1.3098,-1.3156,-1.316,-1.3224,-1.3263,-1.3316,-1.3346,-1.3354,-1.3398,-1.3396,-1.3425,-1.3438,-1.3498,-1.3525,-1.3499,-1.3602,-1.3587,-1.3594,-1.3582,-1.3588,-1.3592,-1.3584,-1.3499,0,0,0,0,0,-1.3104,-1.3147,-1.3196,-1.3247,-1.3266,-1.3303,-1.333,-1.3345,-1.3388,-1.3405,-1.344,-1.3482,-1.3529,-1.356,-1.3606,-1.3671,-1.3685,-1.3699,-1.3703,-1.3706,-1.3712,-1.375,-1.3757,-1.3679,-1.3679,-1.3679,0,0,-1.3117,-1.3154,-1.3179,-1.3247,-1.3279,-1.3324,-1.3317,-1.3365,-1.3399,-1.3413,-1.3473,-1.35,-1.3549,-1.3613,-1.3643,-1.3637,-1.3736,-1.3711,-1.3713,-1.3717,-1.3755,-1.3762,-1.3768,-1.3682,-1.3681,-1.3681,0,0,-1.3164,-1.3196,-1.3242,-1.3275,-1.3324,-1.3348,-1.3359,-1.341,-1.3429,-1.3489,-1.3501,-1.3542,-1.3623,-1.3657,-1.3686,-1.3746,-1.3753,-1.376,-1.3782,-1.3819,-1.3825,-1.383,-1.3853,-1.3861,-1.3766,-1.3766,-1.3766,0,-1.3174,-1.3242,-1.3266,-1.3313,-1.3343,-1.3356,-1.3404,-1.3435,-1.3497,-1.3518,-1.351,-1.3611,-1.3645,-1.3718,-1.3733,-1.3755,-1.377,-1.3754,-1.3822,-1.3828,-1.3833,-1.3855,-1.3864,-1.3766,-1.3766,-1.3766,-1.3766,0,-1.3253,-1.3299,-1.3331,-1.339,-1.3423,-1.3471,-1.3503,-1.3534,-1.3546,-1.3571,-1.3634,-1.3675,-1.373,-1.3748,-1.3761,-1.3823,-1.3818,-1.3816,-1.3802,-1.3841,-1.3862,-1.3871,-1.3767,-1.3767,-1.3767,-1.3767,0,0,-1.33,-1.337,-1.3382,-1.3409,-1.3464,-1.3501,-1.355,-1.3603,-1.3629,-1.3671,-1.3714,-1.3782,-1.378,-1.3812,-1.3829,-1.386,-1.3907,-1.3854,-1.3856,-1.3864,-1.398,-1.3982,-1.3991,-1.3912,-1.3913,-1.3915,-1.3976,0,-1.3354,-1.344,-1.3463,-1.3537,-1.3581,-1.3594,-1.3637,-1.3676,-1.3701,-1.3743,-1.377,-1.3818,-1.3812,-1.3831,-1.3863,-1.3895,-1.3931,-1.389,-1.3953,-1.3955,-1.3941,-1.4002,-1.4005,-1.4061,-1.3985,-1.3986,-1.3987,0,-1.3429,-1.3472,-1.355,-1.3599,-1.3619,-1.3657,-1.3707,-1.3747,-1.3792,-1.3808,-1.3843,-1.3857,-1.391,-1.3892,-1.3966,-1.3938,-1.3965,-1.3984,-1.3987,-1.3994,-1.3974,-1.4013,-1.4079,-1.4088,-1.4,-1.3999,-1.3998,0,-1.3456,-1.3534,-1.3591,-1.3613,-1.3673,-1.3699,-1.3725,-1.3769,-1.3799,-1.3844,-1.3864,-1.3914,-1.3942,-1.3981,-1.4009,-1.3994,-1.4081,-1.4066,-1.4097,-1.4096,-1.4116,-1.4114,-1.4188,-1.4131,-1.4131,-1.4131,-1.4131,0,-1.3515,-1.3562,-1.3604,-1.3639,-1.3693,-1.3719,-1.3772,-1.3799,-1.3837,-1.3879,-1.3893,-1.3932,-1.3966,-1.401,-1.4032,-1.409,-1.4102,-1.4118,-1.4123,-1.4117,-1.4115,-1.4136,-1.4133,-1.4133,-1.4133,-1.4132,-1.4132,0,-1.3555,-1.3585,-1.3648,-1.3698,-1.3712,-1.375,-1.3794,-1.3829,-1.3854,-1.3907,-1.3921,-1.3961,-1.4013,-1.4044,-1.411,-1.4125,-1.419,-1.4194,-1.4175,-1.4177,-1.4208,-1.4205,-1.4298,-1.4312,-1.4245,-1.4245,-1.4246,0,-1.3591,-1.3628,-1.3683,-1.3711,-1.3737,-1.3783,-1.3814,-1.3841,-1.3873,-1.3927,-1.3956,-1.4009,-1.4053,-1.4136,-1.4172,-1.4223,-1.4229,-1.4258,-1.4237,-1.4229,-1.4231,-1.4228,-1.4233,-1.4262,-1.4262,-1.4263,-1.4263,0,-1.3652,-1.3665,-1.3709,-1.3758,-1.3794,-1.3834,-1.3875,-1.3897,-1.3932,-1.3967,-1.402,-1.4054,-1.4122,-1.4175,-1.4229,-1.4257,-1.4267,-1.427,-1.428,-1.4274,-1.4262,-1.427,-1.4186,-1.4268,-1.4267,-1.4267,-1.4267,-1.4266,-1.3692,-1.3726,-1.377,-1.3818,-1.3851,-1.3888,-1.3924,-1.3953,-1.3998,-1.4054,-1.4068,-1.4124,-1.4169,-1.4243,-1.4272,-1.4317,-1.4313,-1.4327,-1.4331,-1.4335,-1.4336,-1.4254,-1.4327,-1.4327,-1.4327,-1.4327,-1.4327,0,-1.3755,-1.3784,-1.3828,-1.3883,-1.3922,-1.3926,-1.3971,-1.4003,-1.4052,-1.4092,-1.4135,-1.4197,-1.4248,-1.4288,-1.4341,-1.437,-1.4376,-1.4383,-1.4382,-1.4388,-1.4337,-1.4323,-1.4377,-1.4377,-1.4377,-1.4377,-1.4377,-1.4377,-1.3792,-1.385,-1.3868,-1.3942,-1.397,-1.4025,-1.405,-1.4085,-1.4118,-1.4185,-1.4228,-1.4253,-1.4294,-1.435,-1.4398,-1.4408,-1.4428,-1.4435,-1.4446,-1.4397,-1.4392,-1.4387,-1.4374,-1.4438,-1.4438,-1.4494,-1.4495,-1.4495]},{"header":{"parameterUnit":"m.s-1","parameterCategory":1,"la1":30.2991,"la2":30.254,"lo1":-89.0895,"lo2":-89.0444,"dy":0.0017,"dx":0.0017,"nx":28,"ny":28,"refTime":"2023-11-10T09:00:00:Z","depth":0,"parameterNumber":3,"parameterNumberName":"V-component_of_WINDS"},"data":[0,0,0,0,0,0,0,0,0,0,0,0,0,0,0,0,0,0,0,0,0,0,0,0,0,0,0,0,0,0,0,0,0,0,0,0,0,0,0,0,0,0,0,0,0,0,0,0,0,0,0,0,0,0,0,0,0,0,-4.824,-4.8239,0,-4.8181,-4.8181,-4.818,-4.8076,-4.8074,-4.8072,-4.807,-4.8012,-4.8012,-4.8012,0,0,0,0,0,0,0,0,0,0,0,0,0,-4.8264,-4.8264,-4.824,-4.8239,-4.8239,-4.8181,-4.8181,-4.818,-4.8076,-4.8074,-4.8072,-4.8069,-4.8012,-4.8012,-4.8013,0,0,0,0,0,0,0,0,0,0,0,0,0,-4.8235,-4.8264,-4.824,-4.818,-4.8174,-4.8182,-4.8181,-4.818,-4.8077,-4.8074,-4.8071,-4.8068,-4.8012,-4.8012,-4.8013,-4.8075,0,0,-4.8014,-4.8014,0,0,0,0,0,0,0,0,-4.8236,-4.8234,-4.819,-4.8184,-4.8178,-4.8133,-4.8168,-4.8144,-4.8078,-4.8114,-4.807,-4.8067,-4.8055,-4.8051,-4.8047,-4.8072,-4.8069,-4.8014,-4.8014,-4.8014,-4.8014,0,0,0,0,0,0,0,-4.8239,-4.8236,-4.8217,-4.8189,-4.8182,-4.8157,-4.8149,-4.8163,-4.8102,-4.811,-4.8103,-4.8097,-4.8051,-4.8047,-4.8045,-4.8068,-4.8014,-4.8014,-4.8015,-4.8015,-4.8141,-4.8144,0,0,0,0,0,0,-4.8249,-4.8238,-4.8219,-4.8215,-4.82,-4.8159,-4.815,-4.815,-4.8101,-4.8091,-4.81,-4.8093,-4.8048,-4.8044,-4.8042,-4.8111,-4.8014,-4.8015,-4.8015,-4.8138,-4.8141,-4.8145,0,0,0,0,0,0,-4.825,-4.8248,-4.8221,-4.8224,-4.8219,-4.8161,-4.8162,-4.8151,-4.8146,-4.8093,-4.8082,-4.8107,-4.8045,-4.8042,-4.8067,-4.8108,-4.8015,-4.8015,-4.8134,-4.8139,-4.8143,-4.825,0,0,0,0,0,0,-4.8251,-4.8249,-4.8272,-4.8226,-4.8219,-4.8247,-4.8165,-4.8152,-4.8147,-4.8137,-4.8097,-4.8087,-4.8042,-4.8067,-4.8068,-4.8107,-4.8016,-4.813,-4.8136,-4.8142,-4.8243,-4.8258,-4.8271,0,0,0,0,0,-4.8253,-4.8305,-4.8274,-4.8272,-4.8246,-4.8249,-4.8246,-4.8193,-4.8151,-4.8173,-4.8139,-4.8088,-4.8103,-4.8071,-4.807,-4.811,-4.8127,-4.8134,-4.8141,-4.8237,-4.8255,-4.8271,0,0,0,0,0,0,-4.8358,-4.8298,-4.8262,-4.8301,-4.8281,-4.8232,-4.8258,-4.8214,-4.8206,-4.8197,-4.8132,-4.8123,-4.8157,-4.8136,-4.8101,-4.8167,-4.8107,-4.8115,-4.818,-4.8197,-4.8211,-4.8216,-4.8016,0,0,0,0,0,-4.8386,-4.8393,-4.834,-4.838,-4.8371,-4.8317,-4.8316,-4.8277,-4.8254,-4.8245,-4.8212,-4.8192,-4.8192,-4.8193,-4.819,-4.8239,-4.8229,-4.8267,-4.8281,-4.8293,-4.83,-4.8324,-4.834,-4.8168,-4.8168,-4.8167,0,0,-4.8444,-4.8412,-4.842,-4.84,-4.838,-4.8389,-4.831,-4.8323,-4.8329,-4.8247,-4.8268,-4.8244,-4.8217,-4.8255,-4.827,-4.8238,-4.8345,-4.8302,-4.8311,-4.8312,-4.8333,-4.8349,-4.8364,-4.8172,-4.8171,-4.8171,0,0,-4.8553,-4.853,-4.856,-4.8541,-4.8511,-4.8474,-4.8482,-4.8439,-4.842,-4.844,-4.8378,-4.8385,-4.8386,-4.837,-4.8361,-4.8465,-4.8418,-4.8466,-4.8539,-4.8564,-4.8577,-4.8589,-4.8626,-4.864,-4.8473,-4.8473,-4.8473,0,-4.8629,-4.8639,-4.8581,-4.8598,-4.8591,-4.8516,-4.8546,-4.8531,-4.8502,-4.85,-4.8465,-4.8464,-4.8441,-4.8473,-4.8499,-4.8495,-4.8501,-4.847,-4.858,-4.8591,-4.8601,-4.8635,-4.865,-4.8479,-4.8478,-4.8478,-4.8477,0,-4.8734,-4.8742,-4.877,-4.8744,-4.874,-4.8764,-4.8709,-4.8713,-4.8674,-4.8642,-4.8664,-4.8633,-4.8622,-4.8627,-4.859,-4.8654,-4.8636,-4.8592,-4.853,-4.8625,-4.8656,-4.8668,-4.8488,-4.8486,-4.8484,-4.8482,0,0,-4.8908,-4.8849,-4.886,-4.8847,-4.8809,-4.8814,-4.8835,-4.8824,-4.8828,-4.8811,-4.8826,-4.8829,-4.8788,-4.8778,-4.8738,-4.876,-4.8844,-4.8712,-4.8711,-4.8738,-4.8913,-4.8947,-4.8963,-4.8812,-4.8814,-4.8816,-4.8915,0,-4.901,-4.9041,-4.8989,-4.9032,-4.9039,-4.8968,-4.8986,-4.8964,-4.8935,-4.8937,-4.8904,-4.8907,-4.8852,-4.8846,-4.8864,-4.883,-4.8878,-4.8822,-4.8826,-4.8827,-4.8835,-4.8979,-4.9015,-4.9109,-4.8927,-4.8929,-4.893,0,-4.9132,-4.912,-4.9164,-4.9123,-4.9124,-4.9141,-4.9126,-4.9129,-4.9104,-4.908,-4.907,-4.9023,-4.904,-4.8981,-4.9004,-4.8967,-4.8965,-4.8949,-4.8951,-4.895,-4.8885,-4.8982,-4.9138,-4.9153,-4.8949,-4.8948,-4.8946,0,-4.9255,-4.925,-4.9276,-4.9267,-4.9219,-4.9233,-4.9213,-4.9185,-4.9182,-4.9169,-4.9166,-4.9157,-4.9152,-4.9145,-4.9097,-4.9058,-4.9126,-4.9062,-4.9107,-4.9109,-4.9125,-4.9125,-4.9284,-4.9125,-4.9124,-4.9124,-4.9124,0,-4.9374,-4.9403,-4.933,-4.9346,-4.9377,-4.9318,-4.935,-4.9324,-4.9299,-4.9309,-4.9247,-4.9257,-4.9192,-4.9196,-4.9158,-4.9183,-4.9181,-4.9163,-4.9152,-4.9168,-4.9171,-4.9167,-4.9159,-4.9128,-4.9127,-4.9126,-4.9126,0,-4.9517,-4.9469,-4.9492,-4.9445,-4.9433,-4.9459,-4.9418,-4.9431,-4.9397,-4.941,-4.941,-4.9357,-4.9358,-4.9309,-4.93,-4.9274,-4.9316,-4.9293,-4.9324,-4.9317,-4.9365,-4.9361,-4.9527,-4.9546,-4.9375,-4.9377,-4.9378,0,-4.9595,-4.9616,-4.9572,-4.9573,-4.9557,-4.9561,-4.9557,-4.9499,-4.9498,-4.947,-4.9487,-4.9482,-4.9476,-4.9481,-4.9442,-4.9434,-4.9411,-4.947,-4.941,-4.9425,-4.9412,-4.9412,-4.9414,-4.9483,-4.9485,-4.9487,-4.9488,0,-4.9741,-4.9716,-4.9712,-4.9701,-4.9698,-4.9687,-4.9671,-4.9676,-4.9613,-4.9615,-4.9615,-4.961,-4.96,-4.9597,-4.9582,-4.9563,-4.9516,-4.9508,-4.9518,-4.9534,-4.9552,-4.9543,-4.9359,-4.9504,-4.9503,-4.9501,-4.9501,-4.95,-4.9853,-4.9869,-4.984,-4.9838,-4.982,-4.9807,-4.9817,-4.9784,-4.9783,-4.977,-4.9736,-4.9742,-4.9716,-4.9691,-4.9676,-4.9679,-4.965,-4.9665,-4.9668,-4.9673,-4.9682,-4.9551,-4.9677,-4.9676,-4.9676,-4.9675,-4.9675,0,-4.9995,-4.9973,-4.9972,-4.9952,-4.9951,-4.9906,-4.9887,-4.9889,-4.9894,-4.9874,-4.9868,-4.9868,-4.9865,-4.9825,-4.9817,-4.9828,-4.9806,-4.9828,-4.9826,-4.9823,-4.9709,-4.9701,-4.9845,-4.9845,-4.9845,-4.9845,-4.9845,-4.9845,-5.0069,-5.0093,-5.0065,-5.0079,-5.0056,-5.0061,-5.0054,-5.0041,-5.0024,-5.0027,-5.0024,-4.9998,-4.997,-4.9959,-4.9954,-4.9942,-4.9942,-4.9971,-4.9953,-4.9847,-4.9831,-4.9815,-4.9807,-4.9972,-4.9972,-5.0066,-5.0067,-5.0067]}]]